Hlavní strana
METAR-TAF:

METAR-TAF

Letiště :

Indianapolis, Indiana, Spojené státy americké

zeměpisná šířka: 39-50-37N, zeměpisná délka: 085-53-49W, výška: 263 m

Aktuální stav počasí

Zpráva byla vytvořena před 16 minutami, v 04:16 UTC
Západojihozápadní vítr 10 kt
Teplota -1°C
Vlhkost vzduchu 100%
Tlak 1020 hPa
Viditelnost: 4.8 km
Zataženo ve výšce 500 ft

METAR: KMQJ 160416Z AUTO 24010KT 3SM OVC005 M01/M01 A3013 RMK AO1

Čas: 21:32 (04:32 UTC)


TAF: chybějící

Stav a předpovědi počasí z více než 4 000 letišť (zprávy METAR a TAF).

Červené a žluté tečky na mapě představují dostupné meteorologické stanice.

Když kurzor umístíte na tečku, zobrazí se název stanice.

Pak kliknutím zobrazíte stav a předpověď počasí.

Chcete-li změnit mapu, kliknutím na zelené tlačítko se znaménkem +mapu přiblížíte, kliknutím na zelené tlačítko se znaménkem – mapu oddálíte a kliknutím na zelené šipky přejdete na sousední mapy.


METAR-TAF: